TELSTAR 11N

Last updated on Sun Jun 21 2026 00:03:04 GMT+0000 (Coordinated Universal Time)

1 34111U 09009A 26171.20647115 -.00000256 00000+0 00000+0 0 9993 2 34111 0.0298 74.3216 0002329 17.9253 212.9246 1.00269868 46272
UTC large
Height (km)
Speed (km/s)
/
Latitude / Longitude
Inclination (degrees)
Orbital Period (minutes)
Azimuth
Elevation
Range (km)
Doppler Factor

Next 0 passes for location: London (51.5072 / 0.1276)

No passes found over London.
TELSTAR 11N